www.pogodaiklimat.ru

Погода и климат >> Архив погоды >> Россия >> Якутия >> Столб Остров


ПОГОДА на Столб Острове

  • Прогноз погоды на Столб Острове
  • Монитор погоды на Столб Острове

АРХИВ ПОГОДЫ на Столб Острове

Время (UTC), дата Ветер
(напр.,м/с)
 
Видим.   Явления Облачность Т
(С)
Тd
(С)
f
(%)
Тe
(С)
Тes
(С)
Комфортность P
(гПа)
Po
(гПа)
Тmin
(С)
Tmax
(С)
R
(мм)
R24
(мм)
S
(см)
03 10.09 З 9-11
{14}
20 км 10/10 300 м
[Cb calv]
+3.8 -2.1 65 -2 -2 1009.5 1007.1
06 10.09 З 7
{12}
20 км 10/10 600 м
[Sc]
+4.2 -4.0 55 -1 -1 1010.1 1007.7
09 10.09 З 6
{10}
20 км 10/10 600 м
[Sc]
+4.0 -6.8 45 -1 -1 1011.2 1008.8
12 10.09 Ю 4 20 км 10/10 600 м
[Sc]
+2.2 -4.9 59 -2 -2 1012.0 1009.6 +4.5
15 10.09 ЮВ 4 20 км 6/4 300 м
[Sc Ac trans]
-0.1 -4.9 70 -5 -5 1011.7 1009.2
18 10.09 ЮВ 3 20 км 3/3 600 м
[Sc Ac trans]
-3.2 -7.9 70 -8 -8 1011.3 1008.8
21 10.09 ЮВ 4 50 км 8/0
[Ac trans Ci fib]
-3.3 -6.5 78 -9 -9 1010.1 1007.6
00 11.09 ЮВ 3 20 км 10/4 600 м
[Sc Ac trans]
+0.6 -2.3 81 -4 -4 1008.8 1006.3 -4.7
03 11.09 В 4 20 км 10/10 600 м
[Sc]
+3.6 +0.7 81 -1 -1 1007.7 1005.3
06 11.09 В 5 20 км 10/6 600 м
[Sc Ac und]
+5.5 +2.6 82 +1 +1 1006.5 1004.1
09 11.09 В 7 50 км 8/4 600 м
[Sc Ac trans Ci fib]
+5.0 +1.5 78 -0 -0 1006.1 1003.7
12 11.09 В 6 50 км 8/3 600 м
[Sc Ac trans Ci fib]
+3.4 +1.1 85 -2 -2 1006.0 1003.6 +6.0
15 11.09 В 4 20 км 8/8 600 м
[Sc]
+3.0 +0.6 84 -2 -2 1006.1 1003.7
18 11.09 В 6 20 км 10/10 600 м
[Sc]
+4.2 +1.9 85 -1 -1 1005.6 1003.2
21 11.09 ЮВ 4 20 км 10/10 600 м
[Sc]
+3.9 -6.1 48 0 0 1005.4 1002.9
00 12.09 СВ 6 10 км слаб. дождь 10/10 600 м
[Sc]
+5.2 +3.5 89 0 0 1004.7 1002.3 +2.5 0.4
03 12.09 В 7 4000 м дождь 10/10 600 м
[Sc]
+5.0 +3.8 92 -1 -1 1003.8 1001.4
06 12.09 В 6 20 км в посл. час дождь 10/10 600 м
[Sc]
+5.2 +4.0 92 0 0 1003.3 1000.9
09 12.09 В 6 10 км слаб. дождь 10/10 600 м
[Sc]
+5.6 +4.4 92 +1 +1 1003.0 1000.6
12 12.09 В 6 10 км слаб. дождь 10/10 600 м
[Sc]
+6.2 +5.1 93 +1 +1 1002.4 1000.0 +6.2 8
15 12.09 С 2 20 км {дождь} 10/10 600 м
[Sc]
+6.0 +5.1 94 +3 +3 1002.0 999.6
18 12.09 штиль 0 10 км слаб. дождь 10/10 600 м
[Sc]
+6.8 +5.7 93 +6 +6 1001.2 998.8
21 12.09 З 3 20 км {дождь} 10/10 600 м
[Sc]
+6.6 +5.5 93 +3 +3 1000.6 998.2
00 13.09 З 2 20 км {дождь} 10/10 600 м
[Sc]
+6.0 +4.6 91 +3 +3 1000.2 997.8 +5.7 2
03 13.09 З 3 20 км 10/10 600 м
[Sc]
+6.4 +5.3 93 +3 +3 999.8 997.4
06 13.09 СЗ 2 20 км 10/10 600 м
[Sc]
+6.2 +4.6 89 +4 +4 998.5 996.1
09 13.09 С 1 20 км 10/10 300 м
[Sc]
+6.2 +4.7 90 +5 +5 998.2 995.8
12 13.09 СВ 3 4000 м дымка 10/10 300 м
[St]
+5.8 +4.9 94 +2 +2 997.6 995.2 +6.4
15 13.09 В 2 4000 м дымка 10/10 200 м
[St]
+5.2 +4.0 92 +2 +2 997.0 994.6
18 13.09 СВ 4 4000 м дымка 10/10 200 м
[St]
+5.6 +4.4 92 +2 +2 996.3 993.9
21 13.09 СВ 8 20 км 10/10 300 м
[Sc]
+5.6 +4.2 91 -0 -0 997.0 993.6
00 14.09 СВ 4 20 км 10/10 300 м
[Sc]
+6.2 +4.3 88 +2 +2 996.7 994.3 +5.2
03 14.09 СВ 6 20 км 8/8 300 м
[Sc]
+6.9 +3.9 81 +2 +3 997.6 995.2
06 14.09 СВ 6 20 км 10/10 300 м
[Sc]
+7.4 +3.7 77 +3 +3 998.5 996.1
09 14.09 СВ 7 20 км 10/10 300 м
[Sc]
+5.9 +1.4 73 +1 +1 1000.4 998.0
12 14.09 С 3 20 км 10/10 300 м
[Sc]
+5.6 +0.7 71 +3 +3 1002.1 999.7 +8.0
15 14.09 С 4 20 км 10/10 300 м
[Sc]
+5.2 +1.1 75 +1 +1 1003.0 1000.6
18 14.09 С 3 20 км 10/10 300 м
[Sc]
+5.0 +1.5 78 +2 +2 1004.0 1001.6
21 14.09 С 4 20 км 10/10 300 м
[Sc]
+4.6 +1.6 81 0 0 1004.9 1002.5
00 15.09 С 3 20 км 10/10 300 м
[Sc]
+5.0 +3.1 88 +1 +1 1005.9 1003.5 +4.2
03 15.09 СВ 3 20 км 10/10 300 м
[Sc]
+5.4 +3.2 86 +2 +2 1006.7 1004.3
06 15.09 С 4 20 км 10/10 300 м
[Cb calv]
+5.4 +3.0 85 +1 +1 1007.5 1005.1
09 15.09 СВ 3 20 км 10/10 300 м
[Sc]
+4.2 +2.2 87 +1 +1 1008.5 1006.1
12 15.09 штиль 0 20 км {ливн. осадки} 10/10 300 м
[Cb cap]
+4.0 +2.8 92 +3 +3 1009.3 1006.9 +5.7 0.4
15 15.09 ЮЗ 4 20 км 10/10 300 м
[Cb calv]
+3.4 +1.9 90 -1 -1 1010.6 1008.2
18 15.09 З 4 10 км слаб. ливневой дождь 10/10 300 м
[Cb cap]
+3.0 +1.5 90 -2 -2 1011.2 1008.8
21 15.09 СЗ 3 4000 м дымка {ливн. осадки} 10/10 300 м
[Cb cap]
+3.4 +2.4 93 -1 -1 1011.2 1008.8
00 16.09 С 2 20 км {ливн. осадки} 10/10 300 м
[Sc]
+3.9 +2.1 88 +1 +1 1011.2 1008.8 +3.4 0.3
03 16.09 С 1 20 км 10/10 300 м
[Sc]
+4.4 +2.7 89 +3 +3 1010.9 1008.5
06 16.09 штиль 0 4000 м слаб. морось 10/10 300 м
[St]
+5.0 +3.3 89 +4 +4 1010.8 1008.4
09 16.09 штиль 0 10 км слаб. морось 10/10 300 м
[St]
+5.4 +4.0 91 +4 +4 1010.3 1007.9
12 16.09 штиль 0 10 км слаб. дождь {морось} 10/10 300 м
[Frnb]
+5.0 +3.8 92 +4 +4 1010.4 1008.0 +5.7 0.5
15 16.09 С 1 20 км {дождь} 10/10 300 м
[Sc]
+3.3 +2.0 91 +2 +2 1010.2 1007.8
18 16.09 ЮЗ 3 10 км слаб. дождь 10/10 300 м
[Sc]
+4.2 +2.7 90 0 0 1010.8 1008.4
21 16.09 Ю 4 10 км {дождь} 10/10 300 м
[Sc]
+4.0 +2.8 92 -1 -1 1011.8 1009.4

 

Местоположение метеостанции Столб Остров (Якутия, Россия): широта 72.40 долгота 126.30 высота над уровнем моря 20 м.

В архиве по умолчанию представлена погода на Столб Острове за последнюю неделю. Архивные данные за месяц целиком и за предыдущие месяцы, начиная с января 2011 года, Вы можете получить, выбрав интересующий диапазон дат из раскрывающегося списка и нажав кнопку "Ввод!".


*Определитесь, кто Вы:
робот инопланетянин человек

Внимание! Время в таблицах - всемирное. Для получения местного времени необходимо прибавить поправку, которая равна 9 ч.

Смотрите также архив погоды в соседних городах и на ближайших метеорологических станциях:

Погода на Мысе Быков (Якутия, Россия) (105 км)
Погода в Тюмяти (Якутия, Россия) (109 км)
Погода в Тикси (Якутия, Россия) (128 км)
Погода в Кюсюре (Якутия, Россия) (195 км)
Погода на Усть-Оленеке (Якутия, Россия) (225 км)
Погода в Юбилейной (Якутия, Россия) (392 км)
Погода в Джарджане (Якутия, Россия) (417 км)
Погода в Саскылахе (Якутия, Россия) (421 км)
Погода в Усть-Куйге (Якутия, Россия) (426 км)
Погода в Анабаре (Якутия, Россия) (430 км)

Пояснения к столбцам:

Ветер - указаны скорость ветра в м/с - средняя за 10 мин, порывы в срок и между сроками (в фигурных скобках) и направление, откуда дует ветер: С - северный, СВ - северо-восточный, В - восточный, ЮВ - юго-восточный, Ю - южный, ЮЗ - юго-западный, З - западный, СЗ - северо-западный.
Видимость - горизонтальная дальность видимости в метрах или километрах. При видимости от 1 до 10 км при отсутствии осадков обычно наблюдается дымка, при ухудшении видимости до 1 км и менее - туман. В сухую погоду видимость может ухудшаться дымом, пылью или мглою.
Явления - указаны атмосферные явления, наблюдавшиеся в срок или в последний час перед сроком; фигурными скобками обозначены явления, наблюдавшиеся между сроками (за 1-3 часа до срока); квадратными скобками обозначены град или гололедные отложения с указанием их диаметра в мм.
Облачность - указаны через наклонную черту общая и нижняя облачность в баллах и высота нижней границы облаков в метрах; квадратными скобками обозначены формы облаков: Ci - перистые, Cs - перисто-слоистые, Cc - перисто-кучевые, Ac - высококучевые, As - высокослоистые, Sc - слоисто-кучевые, Ns - слоисто-дождевые, Cu - кучевые, Cb - кучево-дождевые. Подробнее классификацию облаков см. в Атласе облаков (PDF).
T - Температура воздуха - температура, измеренная на высоте 2 м над землей.
Td - Температура точки росы - температура, при понижении до которой содержащийся в воздухе водяной пар достигнет насыщения.
f - Относительная влажность воздуха - влажноcть воздуха, измеренная на высоте 2 м над землей.
Te - Эффективная температура - температура, которую ощущает одетый по сезону человек в тени. Характеристика душности погоды. При расчете учитывается влияние влажности воздуха и скорости ветра на теплоощущения человека.
Tes - Эффективная температура на солнце - температура, которую ощущает человек, с поправкой на солнечный нагрев. Характеристика знойности погоды. Зависит от высоты солнца над горизонтом, облачности и скорости ветра. Ночью, в пасмурную погоду, а также при ветре 12 м/с и более поправка равна нулю.
P - Атмосферное давление - приведенное к уровню моря атмосферное давление.
Po - Атмосферное давление - измеренное на уровне метеостанции атмосферное давление.
Tmin - Минимальная температура - минимум температуры воздуха на высоте 2 м над землей.
Tmax - Максимальная температура - максимум температуры воздуха на высоте 2 м над землей.
R - Количество осадков - Количество выпавших осадков за период времени, мм. При наведении курсора мыши на число - период времени, за который выпало указанное количество осадков.
R24 - Количество осадков - Количество выпавших осадков за 24 часа, мм.
S - Снежный покров - Высота снежного покрова, см. При наведении курсора мыши на число - состояние снежного покрова и степень покрытия местности в баллах.